Stündliche Wetter Çayeli

Heute, 19 Januar, Dienstag

Zeit Temperatur Niederschläge Wind Luftdruck Luftfeuchtigkeit
00:00 0°C° 1.6 mm 4 m/S 763 mmHg 95%
01:00 0°C° 0.9 mm 4 m/S 764 mmHg 95%
02:00 0°C° 0.9 mm 3 m/S 764 mmHg 94%
03:00 -1°C° 0 mm 4 m/S 764 mmHg 93%
04:00 0°C° 0.9 mm 3 m/S 764 mmHg 92%
05:00 +1°C° 0.9 mm 2 m/S 764 mmHg 91%
06:00 -1°C° 0.9 mm 2 m/S 764 mmHg 90%
07:00 +1°C° 0.7 mm 2 m/S 764 mmHg 90%
08:00 +1°C° 0.7 mm 2 m/S 764 mmHg 90%
09:00 +1°C° 0.7 mm 2 m/S 765 mmHg 89%
10:00 +2°C° 0.6 mm 2 m/S 764 mmHg 90%
11:00 +2°C° 0.6 mm 2 m/S 764 mmHg 91%
12:00 +3°C° 0.6 mm 2 m/S 764 mmHg 92%
13:00 +3°C° 0.5 mm 2 m/S 764 mmHg 91%
14:00 +3°C° 0.5 mm 2 m/S 763 mmHg 90%
15:00 +3°C° 0.5 mm 2 m/S 762 mmHg 88%
16:00 +2°C° 0.3 mm 2 m/S 763 mmHg 89%
17:00 +2°C° 0.3 mm 1 m/S 764 mmHg 90%
18:00 +1°C° 0.3 mm 1 m/S 764 mmHg 91%
19:00 +1°C° 0.2 mm 1 m/S 765 mmHg 87%
20:00 0°C° 0.2 mm 1 m/S 765 mmHg 82%
21:00 -2°C° 0.2 mm 2 m/S 765 mmHg 78%
22:00 -2°C° 0.1 mm 2 m/S 765 mmHg 78%
23:00 -2°C° 0.1 mm 2 m/S 765 mmHg 79%

Morgen, 20 Januar, Mittwoch

Zeit Temperatur Niederschläge Wind Luftdruck Luftfeuchtigkeit
00:00 -3°C° 0.1 mm 2 m/S 765 mmHg 80%
01:00 -3°C° 0.1 mm 2 m/S 765 mmHg 80%
02:00 -4°C° 0.1 mm 3 m/S 765 mmHg 80%
03:00 -4°C° 0.1 mm 3 m/S 765 mmHg 80%
04:00 -4°C° 0.2 mm 3 m/S 765 mmHg 80%
05:00 -4°C° 0.2 mm 3 m/S 765 mmHg 79%
06:00 -4°C° 0.2 mm 3 m/S 766 mmHg 79%
07:00 -2°C° 0.4 mm 3 m/S 766 mmHg 81%
08:00 -2°C° 0.4 mm 3 m/S 766 mmHg 83%
09:00 -1°C° 0.4 mm 2 m/S 766 mmHg 85%
10:00 0°C° 0.4 mm 3 m/S 766 mmHg 87%
11:00 +1°C° 0.4 mm 3 m/S 766 mmHg 90%
12:00 +1°C° 0.4 mm 3 m/S 766 mmHg 92%
13:00 +1°C° 0.5 mm 3 m/S 766 mmHg 93%
14:00 +1°C° 0.5 mm 3 m/S 766 mmHg 94%
15:00 +1°C° 0.5 mm 3 m/S 766 mmHg 95%
16:00 +1°C° 1.5 mm 3 m/S 767 mmHg 95%
17:00 +1°C° 1.5 mm 3 m/S 768 mmHg 95%
18:00 0°C° 1.5 mm 3 m/S 768 mmHg 95%
19:00 0°C° 1.2 mm 3 m/S 769 mmHg 95%
20:00 0°C° 1.2 mm 3 m/S 769 mmHg 95%
21:00 +1°C° 1.2 mm 2 m/S 769 mmHg 95%
22:00 0°C° 0.5 mm 3 m/S 770 mmHg 93%
23:00 0°C° 0.5 mm 3 m/S 770 mmHg 91%

übermorgen, 21 Januar, Donnerstag

Zeit Temperatur Niederschläge Wind Luftdruck Luftfeuchtigkeit
00:00 -1°C° 0.5 mm 3 m/S 771 mmHg 90%
01:00 -1°C° 0.2 mm 3 m/S 771 mmHg 88%
02:00 -1°C° 0.2 mm 3 m/S 771 mmHg 86%
03:00 -1°C° 0.2 mm 3 m/S 771 mmHg 85%
04:00 -1°C° 0.1 mm 3 m/S 772 mmHg 84%
05:00 -1°C° 0.1 mm 3 m/S 772 mmHg 83%
06:00 -1°C° 0.1 mm 3 m/S 773 mmHg 82%
07:00 -1°C° 0 mm 3 m/S 773 mmHg 80%
08:00 +1°C° 0 mm 2 m/S 773 mmHg 78%
09:00 +1°C° 0 mm 2 m/S 774 mmHg 77%
10:00 +2°C° 0 mm 2 m/S 774 mmHg 78%
11:00 +4°C° 0 mm 1 m/S 774 mmHg 78%
12:00 +6°C° 0 mm 1 m/S 773 mmHg 79%
13:00 +6°C° 0 mm 1 m/S 773 mmHg 79%
14:00 +6°C° 0 mm 1 m/S 773 mmHg 79%
15:00 +5°C° 0 mm 2 m/S 773 mmHg 79%
16:00 +4°C° 0 mm 2 m/S 774 mmHg 76%
17:00 +1°C° 0 mm 3 m/S 774 mmHg 73%
18:00 0°C° 0 mm 3 m/S 775 mmHg 70%
19:00 0°C° 0 mm 3 m/S 775 mmHg 66%
20:00 0°C° 0 mm 3 m/S 775 mmHg 62%
21:00 0°C° 0 mm 3 m/S 775 mmHg 58%
22:00 0°C° 0 mm 3 m/S 775 mmHg 55%
23:00 0°C° 0 mm 3 m/S 775 mmHg 52%

22 Januar, Freitag

Zeit Temperatur Niederschläge Wind Luftdruck Luftfeuchtigkeit
00:00 0°C° 0 mm 3 m/S 775 mmHg 49%
01:00 +1°C° 0 mm 3 m/S 775 mmHg 47%
02:00 +1°C° 0 mm 3 m/S 775 mmHg 45%
03:00 +1°C° 0 mm 3 m/S 775 mmHg 43%
04:00 +2°C° 0 mm 3 m/S 775 mmHg 42%
05:00 +2°C° 0 mm 3 m/S 774 mmHg 41%
06:00 +2°C° 0 mm 3 m/S 774 mmHg 40%
07:00 +3°C° 0 mm 3 m/S 774 mmHg 42%
08:00 +5°C° 0 mm 2 m/S 774 mmHg 45%
09:00 +6°C° 0 mm 2 m/S 774 mmHg 47%
10:00 +7°C° 0 mm 2 m/S 773 mmHg 57%
11:00 +10°C° 0 mm 1 m/S 773 mmHg 66%
12:00 +11°C° 0 mm 1 m/S 772 mmHg 76%
13:00 +11°C° 0 mm 1 m/S 772 mmHg 77%
14:00 +11°C° 0 mm 1 m/S 771 mmHg 78%
15:00 +11°C° 0 mm 1 m/S 771 mmHg 80%
16:00 +10°C° 0 mm 1 m/S 771 mmHg 70%
17:00 +8°C° 0 mm 2 m/S 771 mmHg 61%
18:00 +7°C° 0 mm 2 m/S 771 mmHg 52%
19:00 +7°C° 0 mm 2 m/S 771 mmHg 50%
20:00 +7°C° 0 mm 2 m/S 771 mmHg 49%
21:00 +7°C° 0 mm 2 m/S 771 mmHg 47%
22:00 +7°C° 0 mm 2 m/S 771 mmHg 47%
23:00 +7°C° 0 mm 2 m/S 771 mmHg 48%

23 Januar, Samstag

Zeit Temperatur Niederschläge Wind Luftdruck Luftfeuchtigkeit
00:00 +7°C° 0 mm 2 m/S 771 mmHg 48%
01:00 +7°C° 0 mm 2 m/S 771 mmHg 48%
02:00 +7°C° 0 mm 2 m/S 771 mmHg 48%
03:00 +7°C° 0 mm 2 m/S 771 mmHg 48%
04:00 +7°C° 0 mm 2 m/S 771 mmHg 48%
05:00 +7°C° 0 mm 2 m/S 770 mmHg 48%
06:00 +7°C° 0 mm 2 m/S 770 mmHg 47%
07:00 +7°C° 0 mm 2 m/S 770 mmHg 50%
08:00 +8°C° 0 mm 2 m/S 770 mmHg 52%
09:00 +8°C° 0 mm 2 m/S 770 mmHg 54%
10:00 +10°C° 0 mm 1 m/S 769 mmHg 63%
11:00 +11°C° 0 mm 1 m/S 769 mmHg 72%
12:00 +12°C° 0 mm 1 m/S 768 mmHg 81%
13:00 +13°C° 0 mm 1 m/S 768 mmHg 82%
14:00 +13°C° 0 mm 1 m/S 767 mmHg 83%
15:00 +12°C° 0 mm 0 m/S 767 mmHg 83%
16:00 +12°C° 0 mm 1 m/S 767 mmHg 75%
17:00 +11°C° 0 mm 1 m/S 767 mmHg 66%
18:00 +9°C° 0 mm 2 m/S 767 mmHg 57%
19:00 +9°C° 0 mm 2 m/S 767 mmHg 54%
20:00 +8°C° 0 mm 2 m/S 767 mmHg 51%
21:00 +8°C° 0 mm 3 m/S 767 mmHg 48%
22:00 +8°C° 0 mm 3 m/S 767 mmHg 48%
23:00 +9°C° 0 mm 3 m/S 766 mmHg 48%

24 Januar, Sonntag

Zeit Temperatur Niederschläge Wind Luftdruck Luftfeuchtigkeit
00:00 +9°C° 0 mm 3 m/S 766 mmHg 48%
01:00 +9°C° 0 mm 3 m/S 766 mmHg 48%
02:00 +9°C° 0 mm 2 m/S 766 mmHg 48%
03:00 +9°C° 0 mm 2 m/S 766 mmHg 48%
04:00 +9°C° 0 mm 3 m/S 765 mmHg 48%
05:00 +9°C° 0 mm 3 m/S 765 mmHg 48%
06:00 +9°C° 0 mm 3 m/S 765 mmHg 48%
07:00 +9°C° 0 mm 3 m/S 765 mmHg 50%
08:00 +10°C° 0 mm 3 m/S 765 mmHg 52%
09:00 +12°C° 0 mm 2 m/S 765 mmHg 53%
10:00 +13°C° 0 mm 2 m/S 764 mmHg 59%
11:00 +14°C° 0 mm 2 m/S 764 mmHg 64%
12:00 +15°C° 0 mm 2 m/S 763 mmHg 70%
13:00 +14°C° 0 mm 2 m/S 763 mmHg 70%
14:00 +14°C° 0 mm 2 m/S 762 mmHg 70%
15:00 +14°C° 0 mm 1 m/S 762 mmHg 70%
16:00 +13°C° 0 mm 2 m/S 762 mmHg 65%
17:00 +13°C° 0 mm 2 m/S 762 mmHg 60%
18:00 +11°C° 0 mm 3 m/S 762 mmHg 55%
19:00 +11°C° 0 mm 3 m/S 763 mmHg 54%
20:00 +11°C° 0 mm 3 m/S 763 mmHg 53%
21:00 +10°C° 0 mm 3 m/S 763 mmHg 52%
22:00 +10°C° 0 mm 3 m/S 763 mmHg 51%
23:00 +10°C° 0 mm 3 m/S 763 mmHg 50%
Mehr zeigen

Wir brauchen deine Erlaubnis

Meteoprog und unser Service Anbieter werden persönliche Daten aufbewahren, so wie Cookies, Geräte Bezeichnung oder ähnliche Technologien von deinem Gerät und Prozess, so wie Persönliche Daten Inhalte und Werbungen, genauso wie social Media und den Verkehr zu analysieren.

  • Aufbewahrung und/oder Zugang zu deiner Geräte Informationen.

    Cookies, Geräte Bezeichnung oder andere Informationen, können aufbewahrt oder Zugang zu deinem Gerät erhalten, für den Grund, der oben angegeben wird.

  • Personalisierte Werbung und Inhalte, Messungen, Einblick in das Publikum und Produkt Entwicklung.

    Werbungen und Inhalte können personalisiert werden, basierend auf ein Profil. Mehr Daten können besser personalisierte Werbungen und Inhalte hinzufügen. Werbung und Inhalte können gezeigt und gemessen werden. Einblicke über das Publikum, welche die Werbung gesehen haben und den Inhalt, können abgeleitet werden. So wie Daten können genutzt werden, um es zu verbessern oder die Benutzer Erfahrung zu verbessern das System und die Software.

Wenn du “Ich stimme zu” klickst, erlaubst du uns, die Cookies zu benutzen die Geräte Bezeichnung, den Web oder ähnliche Technologien zu benutzen. Deine Settings, können in deinem Gerät bei deinem Browser geändert werden.

Für den bestimmten Zweck, berechtigten Interessen beruhen darauf, mehr als auf den Inhalt. Du kannst mehr darüber in unseren Privaten und Cookie Politik lesen.